Location: Austin
(30.3000°N, 97.7500°W)
Time: 12:23:09
(UTC-05:00)

NOSS 2-2 (D) - Pass Details

Date: 08 April 2026
Orbit: 382 x 1696 km, 63.3° (Epoch: 11 April)

Event Time Altitude Azimuth Distance (km) Brightness Sun altitude
Rises 21:58:22 0° 325° (NW) 2,810 7.9 -26.2°
Reaches altitude 10° 22:00:19 10° 322° (NW) 2,046 7.0 -26.6°
Maximum altitude 22:04:54 61° 242° (WSW) 911 4.4 -27.5°
Enters shadow 22:05:41 55° 205° (SSW) 997 4.4 -27.6°
